Vorticity
3 3 3 4 6 5 4 4 4 5 5 5 5 7 9 10 10 8 8 7 6 6
4 4 3 3 4 4 4 4 4 5 5 5 5 8 10 10 9 8 8 7 7 7
2 4 3 2 4 4 3 4 5 6 5 5 8 9 11 10 9 7 7 7 8 9
2 3 3 3 4 4 4 4 6 6 6 7 8 11 10 9 7 6 7 8 8 8
1 2 4 3 5 4 4 5 8 6 6 8 11 10 9 7 6 6 8 8 8 10
1 2 3 4 6 4 5 9 7 6 8 11 10 10 6 6 7 8 9 9 11 11
1 3 4 6 4 4 10 8 6 9 12 10 10 7 6 7 8 7 9 11 9 8
3 5 6 4 4 10 8 7 9 11 10 10 7 6 8 7 8 11 11 9 7 7
5 5 4 5 12 8 8 9 11 11 10 6 6 7 7 9 10 10 8 6 7 11
4 5 9 11 8 8 10 12 12 9 7 6 7 8 10 9 10 8 6 9 13 16
8 10 9 8 8 10 12 11 9 7 6 6 8 10 9 9 8 7 10 14 17 18
9 9 9 9 10 11 12 8 7 6 6 10 11 9 9 8 6 7 13 19 17 14
10 10 9 10 12 10 8 7 6 7 10 10 9 10 9 6 8 14 16 15 12 18
10 9 10 12 10 9 6 6 8 9 10 8 10 9 7 11 17 18 16 14 20 21
Height
3079 3079 3077 3075 3073 3070 3066 3062 3059 3055 3051 3046 3041 3036 3031 3026 3020 3015 3010 3004 2998 2991
3076 3074 3072 3070 3067 3064 3061 3057 3054 3049 3044 3039 3033 3028 3022 3017 3012 3007 3001 2995 2988 2981
3071 3070 3068 3065 3062 3059 3055 3051 3047 3042 3037 3031 3026 3019 3013 3008 3002 2997 2991 2983 2976 2969
3066 3065 3063 3060 3056 3053 3049 3044 3039 3034 3029 3023 3017 3011 3004 2998 2992 2986 2980 2973 2964 2957
3061 3060 3057 3053 3050 3046 3042 3037 3032 3026 3020 3014 3008 3001 2995 2989 2982 2976 2968 2961 2953 2944
3056 3054 3050 3047 3044 3039 3034 3029 3023 3017 3012 3005 2999 2993 2987 2980 2972 2965 2958 2949 2940 2932
3050 3047 3044 3041 3036 3031 3026 3021 3015 3009 3003 2996 2990 2984 2977 2970 2963 2955 2947 2938 2929 2920
3043 3041 3037 3032 3028 3023 3018 3012 3007 3001 2995 2989 2982 2975 2967 2959 2951 2944 2936 2928 2918 2908
3036 3033 3029 3025 3020 3015 3010 3005 2998 2992 2986 2980 2973 2965 2958 2950 2941 2934 2924 2914 2906 2896
3028 3025 3022 3017 3012 3007 3002 2996 2991 2985 2978 2971 2964 2956 2948 2941 2932 2923 2913 2903 2892 2883
3021 3018 3013 3009 3004 2999 2994 2988 2983 2977 2969 2962 2955 2947 2939 2930 2920 2912 2902 2891 2880 2871
3014 3010 3006 3002 2997 2991 2986 2981 2975 2968 2961 2953 2946 2937 2928 2918 2909 2900 2891 2880 2869 2860
3006 3003 2999 2994 2989 2984 2978 2973 2966 2960 2952 2944 2936 2927 2918 2907 2898 2889 2879 2873 2863 2855
3000 2995 2991 2986 2982 2977 2971 2965 2959 2952 2945 2937 2928 2918 2908 2898 2887 2878 2870 2861 2853 2845